Weather History for Greenwood, MS

Change the Weather History Date:

Saturday, September 7, 2013

  Actual Average Record
Temperature  
Mean Temperature 80 °F 78 °F  
Max Temperature 94 °F 90 °F 97 °F (1990)
Min Temperature 65 °F 66 °F 46 °F (2011)
Degree Days  
Heating Degree Days 0 0  
Month to date heating degree days 0 0  
Since 1 July heating degree days 0 0  
Cooling Degree Days 15 13  
Month to date cooling degree days 111 94  
Year to date cooling degree days 1733 1836  
Growing Degree Days 28 (Base 50)    
Moisture  
Dew Point 66 °F    
Average Humidity 66    
Maximum Humidity 93    
Minimum Humidity 39    
Precipitation  
Precipitation 0.00 in 0.11 in 0.42 in (1969)
Month to date precipitation 0.23 0.78  
Year to date precipitation 38.48 34.85  
Sea Level Pressure  
Sea Level Pressure 30.02 in    
Wind  
Wind Speed 2 mph (SW)    
Max Wind Speed 10 mph    
Max Gust Speed 15 mph    
Visibility 10 miles    
Events      
T = Trace of Precipitation, MM = Missing Value Source: NWS Daily Summary

Daily Weather History Graph

Daily Weather History Graph

Search for Another Location

Airport:

Trip Planner

Search our weather history database for the weather conditions in past years. The results will help you decide how hot, cold, wet, or windy it might be!

Date:

Astronomy

Sep. 07, 2013 Rise Set
Actual Time 6:38 AM CDT 7:17 PM CDT
Civil Twilight 6:13 AM CDT 7:42 PM CDT
Nautical Twilight 5:43 AM CDT 8:11 PM CDT
Astronomical Twilight 5:13 AM CDT 8:42 PM CDT
Moon 8:43 AM CDT (9/7) 8:26 PM CDT (9/7)
Length of Visible Light 13h 28m
Length of Day
12h 38m
Waxing Crescent, 5% of the Moon is Illuminated
Sep 7
Waxing Crescent
Sep 12
First Quarter
Sep 19
Full
Sep 26
Last Quarter
Oct 4
New

Hourly Weather History & Observations

Time (CDT) Temp. Heat Index Dew Point Humidity Pressure Visibility Wind Dir Wind Speed Gust Speed Precip Events Conditions
12:53 AM 71.1 °F - 63.0 °F 75% 30.04 in 10.0 mi Calm Calm - N/A   Clear
1:53 AM 71.1 °F - 63.0 °F 75% 30.04 in 10.0 mi Calm Calm - N/A   Clear
2:53 AM 68.0 °F - 64.0 °F 87% 30.03 in 10.0 mi Calm Calm - N/A   Clear
3:53 AM 66.9 °F - 63.0 °F 87% 30.03 in 10.0 mi East 4.6 mph - N/A   Clear
4:53 AM 66.9 °F - 63.0 °F 87% 30.03 in 10.0 mi Calm Calm - N/A   Clear
5:53 AM 64.9 °F - 63.0 °F 93% 30.04 in 7.0 mi Calm Calm - N/A   Clear
6:53 AM 64.9 °F - 63.0 °F 93% 30.06 in 7.0 mi NE 3.5 mph - N/A   Clear
7:53 AM 72.0 °F - 64.9 °F 78% 30.06 in 10.0 mi ENE 4.6 mph - N/A   Clear
8:53 AM 78.1 °F - 68.0 °F 71% 30.06 in 10.0 mi Calm Calm - N/A   Clear
9:53 AM 84.0 °F 87.0 °F 68.0 °F 58% 30.07 in 10.0 mi SSE 4.6 mph - N/A   Clear
10:53 AM 88.0 °F 90.3 °F 66.0 °F 48% 30.07 in 10.0 mi South 4.6 mph - N/A   Clear
11:53 AM 89.1 °F 91.3 °F 66.0 °F 46% 30.06 in 10.0 mi NW 3.5 mph - N/A   Clear
12:53 PM 91.0 °F 93.8 °F 66.0 °F 44% 30.04 in 10.0 mi Variable 3.5 mph - N/A   Clear
1:53 PM 91.9 °F 94.1 °F 64.9 °F 41% 30.02 in 10.0 mi SW 5.8 mph - N/A   Clear
2:53 PM 93.0 °F 94.6 °F 64.0 °F 38% 29.99 in 10.0 mi West 4.6 mph - N/A   Clear
3:53 PM 93.0 °F 95.0 °F 64.9 °F 39% 29.97 in 10.0 mi SW 5.8 mph - N/A   Clear
4:53 PM 93.0 °F 95.0 °F 64.9 °F 39% 29.95 in 10.0 mi Calm Calm - N/A   Clear
5:53 PM 90.0 °F 92.4 °F 66.0 °F 45% 29.95 in 10.0 mi NNW 4.6 mph - N/A   Clear
6:53 PM 81.0 °F 84.4 °F 70.0 °F 69% 29.96 in 10.0 mi Calm Calm - N/A   Clear
7:53 PM 78.1 °F - 70.0 °F 76% 29.98 in 10.0 mi Calm Calm - N/A   Scattered Clouds
8:53 PM 75.9 °F - 70.0 °F 82% 29.99 in 10.0 mi Calm Calm - N/A   Partly Cloudy
9:53 PM 73.9 °F - 70.0 °F 87% 30.00 in 9.0 mi Calm Calm - N/A   Clear
10:53 PM 73.9 °F - 70.0 °F 87% 29.99 in 9.0 mi Calm Calm - N/A   Clear
11:53 PM 72.0 °F - 69.1 °F 91% 29.99 in 8.0 mi Calm Calm - N/A   Clear